Starlink 32486

operational
NORAD ID: 61854 Int'l Des: 2024-202 Owner: SPXS Country: US Constellation: starlink
LEOCIRCULAR

关于 Starlink 32486

正在加载描述...

实时位置

正在加载3D地球...

即将过境

高度历史

Altitude vs Time

uPlot chart will show altitude changes over time

两行轨道根数

1 61854U 24202K 25259.06474207 .00001891 00000-0 78204-4 0 9991
2 61854 43.0021 143.9531 0000928 289.5978 70.4773 15.27593220 48634
Epoch: Sep 16, 2025 • Age: 9 hours

当前状态

高度 495.8 km
速度 7.62 km/s
星下点 -43.16°S, 102.39°W
发射日期 Nov 7, 2024
运行时间 0.8 years
类型 internet

技术详情

分类 Payload
质量 730.00 kg
干质量 700.00 kg
总质量 730.00 kg
长度 0.30 m
直径 4.10 m
跨度 29.00 m
形状 Box + pan
制造商 SPXS
平台类型 Starlink V2M
阶段状态 In Orbit
所有者/国家 SPXS/US

大型星座

Loading constellations...